SCP
0 0 0 0 0 0 0 0 0 0 0 0 0 0 0 0 0 0 0 0 1 1 1 1 1 1 1 1 0 0 0 0 0 0 0 0 0 0 0 0 0 0 0 0
0 0 0 0 0 0 0 0 0 0 0 0 0 0 0 0 0 0 0 0 0 1 1 1 1 1 1 1 0 0 0 0 0 0 0 0 0 0 0 0 0 0 0 0
0 0 0 0 0 0 0 0 0 0 0 0 0 0 0 0 0 0 0 0 0 0 1 1 1 1 1 1 0 0 0 0 0 0 0 0 0 0 0 0 0 0 0 0
0 0 0 0 0 0 0 0 0 0 0 0 0 0 0 0 0 0 0 0 0 0 1 1 1 1 1 0 0 0 0 0 0 0 0 0 0 0 0 0 0 0 0 0
0 0 0 0 0 0 0 0 0 0 0 0 0 0 0 0 0 0 0 0 0 0 0 1 1 1 0 0 0 0 0 0 0 0 0 0 0 0 0 0 0 0 0 0
0 0 0 0 0 0 0 0 0 0 0 0 0 0 0 0 0 0 0 0 0 0 0 0 0 0 0 0 0 0 0 0 0 0 0 0 0 0 0 0 0 0 0 0
0 0 0 0 0 0 0 0 0 0 0 0 0 0 0 0 0 0 0 0 0 0 0 0 0 0 0 0 0 0 0 0 0 0 0 0 0 0 0 0 0 0 0 0
0 0 0 0 0 0 0 0 0 0 0 0 0 0 0 0 0 0 0 0 0 0 0 0 0 0 0 0 0 0 0 0 0 0 0 0 0 0 0 0 0 0 0 0
0 0 0 0 0 0 0 0 0 0 0 0 0 0 0 0 0 0 0 0 0 0 0 0 0 0 0 0 0 0 0 0 0 0 0 0 0 0 0 0 0 0 0 0
0 0 0 0 0 0 0 0 0 0 0 0 0 0 0 0 0 0 0 0 0 0 0 0 0 0 0 0 0 0 0 0 0 0 0 0 0 0 0 0 0 0 0 0
0 0 0 0 0 0 0 0 0 0 0 0 0 0 0 0 0 0 0 0 0 0 0 0 0 0 0 0 0 0 0 0 0 0 0 0 0 0 0 0 0 0 0 0
0 0 0 0 0 0 0 0 0 0 0 0 0 0 0 0 0 0 0 0 0 0 0 0 0 0 0 0 0 0 0 0 0 0 0 0 0 0 0 0 0 0 0 0
0 0 0 0 0 0 0 0 0 0 0 0 0 0 0 0 0 0 0 0 0 0 0 0 0 0 0 1 0 0 0 0 0 0 0 0 0 0 0 0 0 0 0 0
0 0 0 0 0 0 0 0 0 0 0 0 0 0 0 0 0 0 0 0 0 0 0 0 0 0 0 1 0 0 0 0 0 0 0 0 0 0 0 0 0 0 0 0
0 0 0 0 0 0 0 0 0 0 0 0 0 0 0 0 0 0 0 0 0 0 0 0 0 0 0 0 0 0 0 0 0 0 0 0 0 0 0 0 0 0 0 0
0 0 0 0 0 0 0 0 0 0 0 0 0 0 0 0 0 0 0 0 0 0 0 0 0 0 0 0 0 0 0 0 0 0 0 0 0 0 0 0 0 0 0 0
0 0 0 0 0 0 0 0 0 0 0 0 0 0 0 0 0 0 0 0 0 0 0 0 0 0 0 0 0 0 0 0 0 0 0 0 0 0 0 0 0 0 0 0
0 0 0 0 0 0 0 0 0 0 0 0 0 0 0 0 0 0 0 0 0 0 0 0 0 0 0 0 0 0 0 0 0 0 0 0 0 0 0 0 0 0 0 0
0 0 0 0 0 0 0 0 0 0 0 0 0 0 0 0 0 0 0 0 0 0 0 0 0 0 0 0 0 0 0 0 0 0 0 0 0 0 0 0 0 0 0 0
0 0 0 0 0 0 0 0 0 0 0 0 0 0 0 0 0 0 0 0 0 0 0 0 0 0 0 0 0 0 0 0 0 0 0 0 0 0 0 0 0 0 0 0
0 0 0 0 0 0 0 0 0 0 0 0 0 0 0 0 0 0 0 0 0 0 0 0 0 0 0 0 0 0 0 0 0 0 0 0 0 0 0 0 0 0 0 0
0 0 0 0 0 0 0 0 0 0 0 0 0 0 0 0 0 0 0 0 0 0 0 0 0 0 0 0 0 0 0 0 0 0 0 0 0 0 0 0 0 0 0 0
0 0 0 0 0 0 0 0 0 0 0 0 0 0 0 0 0 0 0 0 0 0 0 0 0 0 0 0 0 0 0 0 0 0 0 0 0 0 0 0 0 0 0 0
0 0 0 0 0 0 0 0 0 0 0 0 0 0 0 0 0 0 0 0 0 0 0 0 0 0 0 0 0 0 0 0 0 0 0 0 0 0 0 0 0 0 0 0
0 0 0 0 0 0 0 0 0 0 0 0 0 0 0 0 0 0 0 0 0 0 0 0 0 0 0 0 0 0 0 0 0 0 0 0 0 0 0 0 0 0 0 0
0 0 0 0 0 0 0 0 0 0 0 0 0 0 0 0 0 0 0 0 0 0 0 0 0 0 0 0 0 0 0 0 0 0 0 0 0 0 0 0 0 0 0 0
0 0 0 0 0 0 0 0 0 0 0 0 0 0 0 0 0 0 0 0 0 0 0 0 0 0 0 0 0 0 0 0 0 0 0 0 0 0 0 0 0 0 0 0
Wind_Speed
4 3 3 4 5 6 6 7 7 7 7 9 6 5 5 4 4 5 5 6 7 7 7 7 7 7 7 7 7 8 7 7 6 5 5 5 4 4 4 4 4 4 4 3
1 2 3 3 5 6 7 5 6 5 7 6 4 1 1 3 5 5 7 8 8 8 8 8 8 8 8 8 8 8 8 7 6 6 6 5 5 5 4 4 4 4 4 4
2 2 1 4 5 5 4 4 5 6 7 2 1 1 3 4 5 6 7 8 9 9 9 9 9 9 10 9 8 8 7 7 7 7 6 6 6 5 5 4 4 4 3 3
1 1 3 6 2 3 4 3 4 4 4 3 4 3 2 3 5 5 6 7 7 8 8 7 7 7 7 7 8 8 7 7 7 7 7 6 6 5 4 4 4 3 3 3
3 2 4 5 2 3 3 3 3 4 3 2 1 1 2 2 3 5 6 6 6 6 6 7 8 8 9 8 8 8 8 8 8 8 8 7 7 6 4 4 4 3 3 4
4 3 5 6 2 1 3 3 2 3 3 2 2 1 4 3 1 1 1 2 4 4 5 6 7 8 9 9 9 9 9 8 8 8 9 9 8 6 4 4 4 4 3 2
4 3 6 5 3 2 3 6 2 2 3 4 4 4 3 1 0 1 2 3 4 6 6 6 7 9 9 9 9 8 7 7 7 7 7 7 6 5 5 5 5 4 3 1
4 3 7 3 2 4 5 2 1 1 2 3 2 0 1 1 2 2 2 3 4 5 4 4 7 9 8 8 7 7 7 7 7 7 7 7 7 6 5 6 6 4 3 1
7 6 4 2 3 3 1 1 1 1 1 2 2 0 1 1 2 2 3 3 4 5 5 4 5 8 9 7 7 8 8 7 6 6 5 6 8 7 5 5 4 4 3 3
2 4 3 3 2 2 1 1 1 1 2 3 2 1 2 2 2 2 2 3 4 5 5 4 3 4 5 6 8 9 8 7 6 6 6 5 5 6 6 5 5 4 4 3
2 3 2 3 2 2 1 1 2 2 2 2 3 2 2 2 2 2 2 2 4 5 5 4 3 3 5 7 8 8 7 7 6 5 6 5 4 4 5 5 7 6 5 5
5 5 4 4 2 0 1 1 1 3 3 2 2 2 2 2 2 2 3 3 3 3 4 3 4 4 4 6 8 9 7 6 5 5 4 4 4 2 1 2 4 5 6 5
3 2 3 1 1 0 1 1 2 3 3 3 2 2 3 2 2 3 3 3 4 4 4 4 4 4 4 6 7 8 8 7 5 5 5 5 5 4 3 1 2 3 4 5
2 2 1 0 0 1 2 3 4 4 4 3 3 3 4 4 3 3 2 2 3 4 4 4 4 4 4 6 7 7 7 7 6 5 5 5 5 4 4 4 3 1 1 3
2 2 2 1 3 3 3 4 5 4 4 4 3 3 4 4 3 2 2 3 4 4 3 3 4 3 4 6 6 6 6 5 5 4 4 4 4 4 3 4 3 2 1 0
2 3 3 4 3 3 4 4 4 3 2 3 3 3 3 3 3 3 3 3 4 3 2 3 2 2 4 6 6 5 4 7 7 5 4 4 4 4 3 3 3 2 2 2
5 4 3 3 2 2 2 2 3 2 2 2 2 3 4 5 5 4 3 2 2 2 2 2 2 2 4 5 6 4 4 5 7 5 4 4 4 4 4 3 3 3 3 3
5 5 5 6 5 3 2 2 2 3 2 2 3 4 4 4 3 2 2 3 3 3 2 1 2 3 4 5 5 4 4 4 4 5 4 4 4 3 3 4 4 3 2 2
4 4 4 3 4 5 4 3 2 2 2 3 4 3 3 3 2 2 3 3 3 2 2 1 3 3 3 4 5 4 5 5 4 4 4 5 4 3 3 3 3 3 3 2
4 5 5 4 3 4 4 3 3 3 2 3 4 4 3 2 2 3 3 2 0 1 1 2 2 2 3 4 5 4 5 5 5 4 4 4 4 4 3 3 3 3 3 3
5 5 5 5 4 3 3 3 4 3 2 3 4 3 2 1 2 2 3 1 2 1 1 3 2 2 2 3 5 4 4 4 4 4 5 4 4 4 4 4 4 3 3 3
4 5 5 4 4 3 2 2 3 4 3 3 3 3 3 2 2 2 1 1 1 1 1 1 1 3 4 4 3 3 4 4 4 4 4 4 4 4 4 4 4 3 3 3
4 4 4 4 4 3 3 3 3 3 3 3 3 2 2 2 1 2 1 1 0 1 1 1 2 4 5 3 2 3 3 4 4 4 4 4 3 3 3 3 3 3 3 3
4 4 4 3 4 5 4 2 3 3 3 2 2 2 2 2 1 1 1 0 1 2 1 2 3 4 4 2 2 2 2 3 3 3 3 3 3 3 3 3 3 3 3 3
4 4 4 5 4 3 3 3 3 3 3 2 2 2 1 1 1 1 1 1 2 3 2 3 4 4 3 2 2 2 2 2 3 3 3 3 2 2 2 2 2 2 2 2
4 3 3 3 3 3 3 3 2 2 2 2 1 2 2 2 2 1 2 2 3 3 2 2 2 2 2 2 1 1 2 2 2 2 2 2 2 2 2 1 2 2 2 1
3 3 2 2 1 2 2 3 3 2 2 2 1 1 1 1 2 2 2 2 2 2 2 2 1 1 1 1 1 1 1 2 2 2 2 2 2 2 2 2 1 1 1 1
Wind_Direction
226 224 196 215 211 190 192 195 200 236 242 260 260 247 234 215 187 175 179 180 181 181 181 176 175 174 174 170 165 163 160 161 164 155 145 139 136 135 132 129 129 130 123 116
282 252 209 242 242 212 215 214 224 249 265 261 267 249 213 193 182 187 194 192 189 185 181 179 179 178 173 172 168 164 166 168 158 149 145 144 143 138 131 123 119 120 127 128
259 305 44 275 243 203 201 206 194 221 247 273 301 254 223 206 195 200 204 195 189 189 187 187 185 180 179 174 164 163 166 162 157 154 150 152 148 141 141 138 130 127 130 127
155 70 232 247 249 181 185 228 218 232 248 228 228 243 234 203 196 206 203 197 195 190 187 183 178 174 165 156 160 162 164 164 160 157 155 151 147 150 147 139 137 138 139 139
135 186 274 291 280 178 178 261 228 221 250 258 245 14 315 246 205 206 204 198 192 186 179 169 169 165 154 155 157 161 169 171 169 164 159 157 159 158 152 141 136 137 141 142
135 169 231 250 270 217 129 274 257 206 220 197 117 76 277 278 232 209 183 170 161 150 144 157 166 157 154 159 164 176 180 175 168 164 163 165 165 158 149 145 143 138 131 143
164 206 255 257 282 120 159 242 268 195 200 178 187 207 253 270 204 153 141 140 141 141 149 163 160 156 161 165 181 182 165 157 157 160 162 160 152 148 144 139 132 132 132 137
157 189 251 273 129 170 214 260 234 180 191 190 203 138 58 112 116 105 100 112 130 136 142 146 156 159 166 180 177 152 148 151 155 154 155 150 143 143 144 142 140 143 142 150
185 208 243 252 216 244 209 224 234 165 157 151 139 93 54 84 122 127 122 130 131 134 132 135 156 166 173 174 151 144 143 148 150 149 147 148 150 150 147 148 152 163 165 177
215 263 277 287 289 302 259 231 232 143 135 136 134 129 100 94 103 113 114 128 129 128 133 144 159 160 163 153 150 146 147 149 148 148 145 146 151 156 157 164 168 173 178 185
220 264 314 311 286 276 322 54 74 77 103 131 121 113 118 122 129 130 111 120 135 147 151 158 150 143 144 148 145 145 147 148 150 150 152 152 157 170 175 185 182 180 188 182
211 215 191 238 268 275 102 92 106 95 65 68 116 134 120 118 112 115 117 115 122 129 140 147 143 140 142 151 149 146 146 151 153 152 153 153 150 129 143 177 189 188 183 177
211 210 189 222 343 56 132 124 97 99 101 85 66 105 113 107 105 107 113 121 132 139 139 135 136 139 149 150 150 152 154 156 155 155 157 159 159 156 150 83 120 164 177 183
189 137 136 253 8 43 95 92 82 70 64 76 80 90 102 101 99 107 125 134 119 115 115 129 139 149 156 152 151 154 154 156 156 162 163 164 166 166 163 160 159 184 202 190
212 178 177 135 81 69 80 90 86 72 64 59 74 92 103 111 112 102 85 93 100 100 104 118 134 154 154 151 150 153 153 155 155 152 153 155 155 153 154 160 161 158 110 166
125 100 112 111 104 88 82 89 95 89 85 75 74 79 90 101 97 87 85 105 113 121 135 135 148 170 157 150 146 147 151 149 146 146 145 143 147 150 155 159 162 167 180 187
135 145 145 142 135 115 101 107 122 123 109 102 102 101 96 91 82 71 63 72 102 112 127 148 163 158 156 153 148 146 142 148 143 140 149 155 158 164 167 167 174 184 201 197
173 175 169 164 158 142 116 97 99 105 110 110 106 103 102 105 105 94 77 76 75 56 38 84 126 136 148 151 148 142 143 148 152 155 155 156 160 163 163 167 175 177 183 183
129 130 130 134 142 136 130 122 111 99 93 102 105 102 101 103 107 104 98 92 91 63 339 42 120 123 141 153 145 142 145 147 147 147 151 151 150 154 160 167 174 178 179 178
110 115 115 109 107 116 119 119 113 101 96 107 106 97 87 82 97 101 93 80 109 226 206 113 116 118 138 146 140 144 150 153 154 154 152 157 164 169 174 176 177 180 186 194
119 117 115 112 102 94 105 118 117 111 102 105 112 118 119 98 95 102 99 64 335 13 90 109 110 121 136 143 140 144 152 157 159 163 167 170 173 177 179 181 182 187 191 196
120 117 112 109 105 92 80 94 108 107 97 88 89 100 104 95 78 65 64 170 237 82 78 94 111 126 126 125 134 142 151 156 160 163 167 169 173 179 183 184 187 192 194 197
122 119 113 112 114 107 79 75 88 101 103 105 107 112 119 131 139 124 51 327 43 86 77 103 122 119 117 113 123 138 150 157 162 166 169 171 175 180 184 187 190 193 196 199
121 118 115 112 108 102 90 70 67 76 82 83 85 104 120 108 56 26 160 125 65 71 80 105 105 100 100 103 114 126 145 158 162 165 165 166 168 174 179 182 190 201 204 203
130 127 127 124 119 122 123 105 87 79 74 67 54 44 46 107 140 154 82 87 84 68 70 77 78 81 87 101 116 134 151 159 159 157 158 162 170 175 179 183 189 195 202 208
136 138 144 148 149 147 138 126 120 116 109 92 47 36 45 57 79 81 78 76 78 71 65 59 63 68 77 92 107 123 132 140 141 138 148 155 155 158 165 169 175 181 191 204
120 122 119 110 120 141 140 137 139 147 149 140 122 46 66 72 74 74 71 67 66 64 61 56 57 63 69 78 87 98 108 117 123 130 141 146 149 156 164 167 168 173 183 193